Left ArrowRight Arrow

35.59393, -105.2239

Hourly Observations for September 9, 2021

Temp ( °F °C ) Dew Point ( °F °C ) Humidity (%) Winds ( mph kmh ) Pressure ( in mb ) Visibility ( mi km ) Precip ( " mm )
12:53 am 00:53 Clear 58 14.4 52 11.1 81 81 S 14 22 30.03 1017 10 16 0.00 0.00
1:53 am 01:53 Clear 59 15 52 11.1 78 78 S 15 24 30.01 1016 10 16 0.00 0.00
2:53 am 02:53 Clear 57 13.9 52 11.1 83 83 S 14 22 30.00 1016 10 16 0.00 0.00
3:53 am 03:53 Clear 58 14.4 52 11.1 81 81 S 15 24 29.99 1016 10 16 0.00 0.00
4:53 am 04:53 Clear 57 13.9 52 11.1 83 83 S 13 20 30.00 1016 10 16 0.00 0.00
5:53 am 05:53 Clear 54 12.2 49 9.4 83 83 S 7 11 30.03 1017 10 16 0.00 0.00
7:53 am 07:53 Sunny 57 13.9 48 8.9 72 72 NNE 5 7 30.06 1018 10 16 0.00 0.00
8:53 am 08:53 Sunny 67 19.4 48 8.9 51 51 Calm 30.04 1017 10 16 0.00 0.00
9:53 am 09:53 Sunny 75 23.9 46 7.8 36 36 NNE 3 6 30.03 1017 10 16 0.00 0.00
10:53 am 10:53 Sunny 81 27.2 39 3.9 22 22 VRB 3 6 30.00 1016 10 16 0.00 0.00
11:53 am 11:53 Sunny 85 29.4 40 4.4 20 20 VRB 5 7 29.99 1016 10 16 0.00 0.00
12:53 pm 12:53 Sunny 85 29.4 36 2.2 17 17 undefined N/A 29.96 1015 10 16 0.00 0.00
1:53 pm 13:53 Sunny 88 31.1 31 -0.6 13 13 VRB 6 9 29.93 1013 10 16 0.00 0.00
2:53 pm 14:53 Sunny 90 32.2 32 0 13 13 VRB 3 6 29.91 1013 10 16 0.00 0.00
3:53 pm 15:53 Sunny 89 31.7 35 1.7 15 15 SW 9 15 29.90 1012 10 16 0.00 0.00
4:53 pm 16:53 Sunny 89 31.7 34 1.1 14 14 SSE 9 15 29.90 1012 10 16 0.00 0.00
5:53 pm 17:53 Sunny 86 30 37 2.8 18 18 SSE 12 19 29.92 1013 10 16 0.00 0.00
6:53 pm 18:53 Sunny 80 26.7 37 2.8 21 21 SSE 14 22 29.96 1015 10 16 0.00 0.00
7:53 pm 19:53 Clear 69 20.6 37 2.8 31 31 SSE 12 19 29.98 1015 10 16 0.00 0.00
8:53 pm 20:53 Clear 69 20.6 37 2.8 31 31 SSE 12 19 29.96 1015 10 16 0.00 0.00
9:53 pm 21:53 Clear 67 19.4 42 5.6 41 41 SSE 12 19 29.95 1014 10 16 0.00 0.00
10:53 pm 22:53 Clear 64 17.8 45 7.2 50 50 S 13 20 29.94 1014 10 16 0.00 0.00
11:53 pm 23:53 Clear 64 17.8 43 6.1 46 46 SW 6 9 29.94 1014 10 16 0.00 0.00

Powered by Vaisala Xweather